Regional Weather Roundup
Issued by NWS Green Bay, WI

Home | Current Version | Previous Version | Graphics & Text | Print | Product List | Glossary Off
Versions: 1 2 3 4 5 6 7 8 9 10 11 12 13 14 15 16 17 18 19 20 21 22 23 24 25 26 27 28 29 30 31 32 33 34 35 36 37 38 39 40 41 42 43 44 45 46 47 48 49 50

000
ASUS43 KGRB 011711
RWRGRB

NORTH-CENTRAL AND NORTHEAST WISCONSIN REGIONAL WEATHER ROUNDUP
NATIONAL WEATHER SERVICE GREEN BAY WI
1200 PM CDT SAT AUG 01 2015

WIZ005-009-010>012-018-019-011800-
NORTH CENTRAL WISCONSIN

CITY           SKY/WX    TMP DP  RH WIND       PRES   REMARKS
IRONWOOD       SUNNY     72  54  53 W10G22      N/A
MANITOWISH WTR PTSUNNY   71  52  50 NW16      29.94S
ARBOR VITAE    SUNNY     72  52  49 NW9G22    29.94S
EAGLE RIVER    PTSUNNY   72  49  43 NW12      29.93F
LAND O LAKES   PTSUNNY   72  49  44 NW9G17    29.93F
RHINELANDER    MOSUNNY   74  51  44 NW10G18   29.96S
PHILLIPS       MOSUNNY   74  53  47 W9        29.95S
ANTIGO         MOSUNNY   74  53  47 W15       29.95S
TOMAHAWK       SUNNY     73  51  46 NW12G17   29.96S
MERRILL        NOT AVBL
$$

WIZ013-073-011800-
NORTHEAST WISCONSIN

CITY           SKY/WX    TMP DP  RH WIND       PRES   REMARKS
IRON MOUNTAIN  MOSUNNY   76  51  41 NW10G23   29.89S
MARINETTE      SUNNY     75  54  46 NW9G16    29.88S
OCONTO         MOSUNNY   78  53  41 W13G21    29.90S
$$

WIZ017-030-035>037-045-011800-
CENTRAL WISCONSIN

CITY           SKY/WX    TMP DP  RH WIND       PRES   REMARKS
MEDFORD        MOSUNNY   75  53  45 W10       29.97S
WAUSAU         SUNNY     77  47  34 NW13      29.94S
MOSINEE        MOSUNNY   75  50  41 NW10G20   29.97F
MARSHFIELD     SUNNY     78  49  35 NW8       29.97S
WISC RAPIDS    PTSUNNY   79  50  36 VRB7      29.98S
STEVENS POINT  SUNNY     76  48  38 N12G17    29.96F
WAUPACA        SUNNY     81  46  29 NW9G20    29.95F
SHAWANO        SUNNY     78  53  41 W10       29.93S
CLINTONVILLE   SUNNY     79  46  31 NW14G20   29.93F
$$

WIZ038-039-048-051-011800-
FOX VALLEY

CITY           SKY/WX    TMP DP  RH WIND       PRES   REMARKS
NWS GREEN BAY  SUNNY     78  55  44 NW13      29.92S
APPLETON       MOSUNNY   79  46  31 NW13G21   29.95S
OSHKOSH        SUNNY     79  51  37 W10       29.94F
FOND DU LAC    MOSUNNY   80  51  36 NW10      29.96S
$$

WIZ022-050-052-011800-
EAST CENTRAL WISCONSIN

CITY           SKY/WX    TMP DP  RH WIND       PRES   REMARKS
STURGEON BAY   SUNNY     75  54  46 W12G18    29.93S
MANITOWOC      SUNNY     79  49  34 MISG      29.92S
SHEBOYGAN      SUNNY     80  51  36 W15       29.94S
$$

LMZ563-521-522-541>543-011800-
LAKESHORE

STATION/POSITION TIME  TEMP    WIND        PRES    VSBY  WAVE
                       AIR SEA DIR/SP/G                  HT/PER
                 (UTC) (F)     (DEG/KT/KT) (MB)    (MI)  (FT/S)
SHEBOYGAN LKSHOR 1700   77     290/ 14/ 19 1013.6F
KEWAUNEE LKSHORE 1600   75     290/  7/ 14 1012.3S
ALGOMA MARINA    1612          310/  9/ 15   N/A
NORTHPORT PIER   1600   72     260/  5/ 10 1011.9S
N MID LAKE BUOY  1650   68 68  260/ 10/ 12 1011.3F         1/ 3
S GREEN BAY BUOY 1700   70 69  260/  6/  8 1014.2
SISTER BAY LKSHO 1629   78     280/  6/  8   N/A
CHAMBERS ISLAND  1600   73     260/  4/  8 1011.9F
MENOMINEE LKSHOR 1600   74     310/  8/ 16 1012.8F
$$


USA.gov is the U.S. government's official web portal to all federal, state and local government web resources and services.